Regional Weather Roundup
Issued by NWS

Home | Current Version | Previous Version | Graphics & Text | Print | Product List | Glossary Off
Versions: 1 2 3 4 5 6 7 8 9 10 11 12 13 14 15 16 17 18 19 20 21 22 23 24 25 26 27 28 29 30 31 32 33 34 35 36 37 38 39 40 41 42 43 44 45 46 47 48 49 50

000
ASUS43 KLOT 090103
RWRIL

ILLINOIS REGIONAL WEATHER ROUNDUP
NATIONAL WEATHER SERVICE CHICAGO/ROMEOVILLE IL
700 PM CST THU DEC 08 2016

NOTE: "FAIR" INDICATES FEW OR NO CLOUDS BELOW 12,000 FEET WITH NO
SIGNIFICANT WEATHER AND/OR OBSTRUCTIONS TO VISIBILITY.

* THESE STATIONS ARE NOT UNDER NWS QUALITY CONTROL. THEY ALSO MAY NOT
  REPORT WEATHER SUCH AS PRECIPITATION OR FOG.

ILZ001-002-007-009-015-016-024-090200-
NORTHWEST ILLINOIS

CITY           SKY/WX    TMP DP  RH WIND       PRES   REMARKS
MOLINE         CLOUDY    23  13  65 W13       30.49R WCI  11
STERLING*      FLURRIES  22  17  81 NW13      30.45R WCI  10
SAVANNA*       CLOUDY    23  15  72 W9        30.46R WCI  13
$$

ILZ003-004-008-010-011-017-018-090200-
NORTH CENTRAL ILLINOIS

CITY           SKY/WX    TMP DP  RH WIND       PRES   REMARKS
ROCKFORD       FLURRIES  23  16  74 W13       30.42R WCI  11
FREEPORT*      FLURRIES  22  16  76 W12       30.42S WCI  11
ROCHELLE*      FLURRIES  22  18  83 W13       30.43R WCI  10
$$

ILZ005-006-012>014-019>023-090200-
NORTHEAST ILLINOIS

CITY           SKY/WX    TMP DP  RH WIND       PRES   REMARKS
CHICAGO-OHARE  FLURRIES  23  15  71 NW14      30.38R WCI  11
CHICAGO-MIDWAY FLURRIES  24  14  65 W14       30.39R WCI  12
AURORA         CLOUDY    23  17  78 W14       30.41R WCI  11
LANSING*       CLOUDY    23  17  80 W13G22    30.40R WCI  11
WAUKEGAN       MOCLDY    24  15  68 W14G23    30.33S WCI  12
DUPAGE AIRPORT CLOUDY    23  14  68 W13       30.39R WCI  11
KANKAKEE*      FLURRIES  23  16  74 W15G22    30.43S WCI  10
WHEELING       CLOUDY    24  15  68 W12       30.38S WCI  13
MORRIS*        FLURRIES  23  18  80 W15       30.43R WCI  10
NORTHERLY ISL    N/A     24  16  71 W13         N/A  WCI  13
$$

LMZ740>746-090200-
SOUTHERN LAKE MICHIGAN

STATION/POSITION SKY/WX   TEMP    WIND        PRES    VSBY  WAVE
                          AIR SEA DIR/SP/G                  HT/PER
                          (F)     (DEG/KT/KT) (MB)    (MI)  (FT/S)
HARRISON CRIB              25     290/ 19/ 23   N/A
BURNHAM HARBOR             25     250/ 14/ 21   N/A
CALUMET HARBOR             23     280/ 12/ 17 1028.1R
BURNS HARBOR               26     280/ 21/ 25 1028.8R
$$

ILZ025>027-034>036-040-047-049-050-058-095>099-090200-
WEST-CENTRAL ILLINOIS

CITY           SKY/WX    TMP DP  RH WIND       PRES   REMARKS
QUINCY         PTCLDY    20  12  71 W8        30.55R WCI  10
GALESBURG*     CLOUDY    21  15  78 W10       30.50S WCI   9
MACOMB*        CLOUDY    22  14  71 NW15      30.55R WCI   8
JACKSONVILLE*  MOCLDY    20  12  71 NW8       30.54R WCI  11
PITTSFIELD*    PTCLDY    23  13  65 W6        30.56R WCI  16
$$

ILZ028>032-037-038-041>044-048-051>054-059>061-090200-
CENTRAL ILLINOIS

CITY           SKY/WX    TMP DP  RH WIND       PRES   REMARKS
PONTIAC        MIX PCPN  23  19  83 W16       30.46S WCI  10
BLOOMINGTON    FLURRIES  20  14  77 NW17      30.47R WCI   5
DECATUR        CLOUDY    21  12  68 W20       30.51R WCI   6
PEORIA         CLOUDY    21  12  68 W12G23    30.51R WCI   9
LACON*         FLURRIES  22  15  76 W7        30.48S WCI  13
LINCOLN*       CLOUDY    22  14  71 W6G17     30.52R WCI  14
SPRINGFIELD    PTCLDY    21  12  68 NW9       30.53R WCI  11
TAYLORVILLE    CLOUDY    23  12  63 W13G24    30.53R WCI  11
$$

ILZ033-039-045-046-055>057-062-063-090200-
EAST-CENTRAL ILLINOIS

CITY           SKY/WX    TMP DP  RH WIND       PRES   REMARKS
CHAMPAIGN      FLURRIES  21  12  68 W17       30.48R WCI   7
RANTOUL*       CLOUDY    23  16  75 W15G22    30.46S WCI  10
MATTOON        CLOUDY    21  11  65 NW13      30.49R WCI   9
PARIS*         CLOUDY    21  15  75 NW15G22   30.50R WCI   8
$$

ILZ079-100>102-090200-
SOUTHWEST ILLINOIS

CITY           SKY/WX    TMP DP  RH WIND       PRES   REMARKS
BELLEVILLE     CLEAR     25  13  61 NW12      30.55R WCI  14
CAHOKIA*       CLEAR     26  12  55 NW12      30.58R WCI  16
SPARTA*        CLEAR     25  15  65 NW7       30.56R WCI  17
$$

ILZ064>066-069>071-074>076-080>082-084>086-088>090-092>094-090200-
SOUTH-CENTRAL ILLINOIS

CITY           SKY/WX    TMP DP  RH WIND       PRES   REMARKS
CARBONDALE     CLEAR     25  15  66 NW6       30.55R WCI  18
CAIRO*         CLEAR     28  17  65 N5        30.55R WCI  22
EFFINGHAM*     CLOUDY    25  16  68 W14       30.54R WCI  13
MARION         CLEAR     28  16  59 N3        30.55R
CENTRALIA*     CLOUDY    28  17  64 NW15G21   30.53R WCI  16
SALEM*         CLOUDY    28  15  58 NW15      30.53R WCI  16
METROPOLIS*    CLEAR     28  15  59 CALM      30.54R
$$

ILZ067-068-072-073-078-083-087-091-090200-
SOUTHEAST ILLINOIS

CITY           SKY/WX    TMP DP  RH WIND       PRES   REMARKS
LAWRENCEVILLE  CLOUDY    25  14  63 NW13      30.52R WCI  14
FLORA*         CLOUDY    28  16  62 NW10G16   30.53R WCI  18
FAIRFIELD*     CLOUDY    27  15  61 NW3       30.52S
HARRISBURG*    PTCLDY    26  16  66 NW7       30.54R WCI  18
ROBINSON*      CLOUDY    24  15  69 NW12      30.52R WCI  13
CARMI*         CLOUDY    27  18  69 NW8G16    30.53R WCI  19
$$

ABBREVIATIONS USED IN REMARKS
   TC - TEMPERATURE IN CELSIUS
  WCI - WIND CHILL INDEX
   HX - HEAT INDEX
  VSB - VISIBILITY
$$





USA.gov is the U.S. government's official web portal to all federal, state and local government web resources and services.